Weather History for Deadhorse, AK

Change the Weather History Date:

Monday, July 29, 2013

  Actual Average Record
Temperature  
Mean Temperature 48 °F -  
Max Temperature 59 °F 53 °F 78 °F (2012)
Min Temperature 37 °F 38 °F 30 °F (2002)
Degree Days  
Heating Degree Days 17    
Moisture  
Dew Point 45 °F    
Average Humidity 89    
Maximum Humidity 100    
Minimum Humidity 77    
Precipitation  
Precipitation 0.01 in - - ()
Sea Level Pressure  
Sea Level Pressure 29.99 in    
Wind  
Wind Speed 20 mph (West)    
Max Wind Speed 31 mph    
Max Gust Speed 39 mph    
Visibility 7 miles    
Events Rain    
Averages and records for this station are not official NWS values.
T = Trace of Precipitation, MM = Missing Value Source: NWS Daily Summary

Daily Weather History Graph

Daily Weather History Graph

Search for Another Location

Airport:

Trip Planner

Search our weather history database for the weather conditions in past years. The results will help you decide how hot, cold, wet, or windy it might be!

Date:

Astronomy

Jul. 29, 2013 Rise Set
Actual Time 2:43 AM AKDT 1:04 AM AKDT
Civil Twilight Sun does not rise Sun does not rise
Nautical Twilight Sun does not rise Sun does not rise
Astronomical Twilight Sun does not rise Sun does not rise
Moon 10:39 PM AKDT (7/29) 5:09 PM AKDT (7/29)
Length of Visible Light 24h 00m
Length of Day
22h 20m
Waning Gibbous, 49% of the Moon is Illuminated
Jul 29
Waning Gibbous
Aug 6
New
Aug 14
First Quarter
Aug 20
Full
Aug 28
Last Quarter

Hourly Weather History & Observations

Time (AKDT) Temp. Windchill Dew Point Humidity Pressure Visibility Wind Dir Wind Speed Gust Speed Precip Events Conditions
12:53 AM 59.0 °F - 54.0 °F 83% 29.83 in 10.0 mi WSW 12.7 mph - N/A   Mostly Cloudy
1:53 AM 57.0 °F - 53.1 °F 87% 29.84 in 10.0 mi WSW 15.0 mph - N/A   Overcast
2:53 AM 57.0 °F - 52.0 °F 83% 29.85 in 10.0 mi West 26.5 mph 39.1 mph N/A   Overcast
3:30 AM 57.2 °F - 51.8 °F 82% 29.84 in 10.0 mi West 21.9 mph 32.2 mph N/A   Overcast
3:53 AM 55.9 °F - 52.0 °F 87% 29.85 in 10.0 mi WSW 15.0 mph - N/A   Overcast
4:05 AM 55.4 °F - 51.8 °F 88% 29.85 in 10.0 mi WSW 12.7 mph - N/A   Overcast
4:53 AM 55.9 °F - 51.1 °F 84% 29.86 in 10.0 mi West 15.0 mph 20.7 mph N/A   Overcast
5:53 AM 57.0 °F - 50.0 °F 77% 29.85 in 10.0 mi West 20.7 mph 28.8 mph N/A   Overcast
6:53 AM 55.9 °F - 51.1 °F 84% 29.86 in 10.0 mi WSW 21.9 mph 28.8 mph N/A   Overcast
7:26 AM 55.4 °F - 51.8 °F 88% 29.86 in 3.0 mi West 25.3 mph 34.5 mph 0.00 in Rain Light Rain
7:28 AM 53.6 °F - 51.8 °F 94% 29.86 in 3.0 mi West 21.9 mph 34.5 mph 0.00 in Rain Light Rain
7:53 AM 53.1 °F - 51.1 °F 93% 29.87 in 6.0 mi West 25.3 mph 31.1 mph 0.01 in Rain Light Rain
8:05 AM 51.8 °F - 51.8 °F 100% 29.87 in 2.0 mi West 24.2 mph 27.6 mph 0.00 in Rain Light Rain
8:21 AM 51.8 °F - 50.0 °F 94% 29.88 in 10.0 mi West 26.5 mph 32.2 mph 0.00 in   Overcast
8:53 AM 52.0 °F - 48.0 °F 86% 29.89 in 10.0 mi West 27.6 mph 36.8 mph 0.00 in   Overcast
9:53 AM 51.1 °F - 46.0 °F 83% 29.91 in 10.0 mi West 31.1 mph 39.1 mph N/A   Overcast
10:53 AM 50.0 °F - 44.1 °F 80% 29.94 in 10.0 mi West 28.8 mph 36.8 mph N/A   Overcast
11:14 AM 48.2 °F - 44.6 °F 87% 29.94 in 10.0 mi West 26.5 mph 34.5 mph N/A   Overcast
11:53 AM 48.9 °F - 43.0 °F 80% 29.96 in 10.0 mi West 27.6 mph 35.7 mph 0.00 in   Overcast
12:03 PM 48.2 °F - 44.6 °F 87% 29.97 in 7.0 mi West 24.2 mph 32.2 mph N/A   Overcast
12:53 PM 46.9 °F - 43.0 °F 86% 30.00 in 9.0 mi West 29.9 mph 35.7 mph 0.00 in   Overcast
1:04 PM 48.2 °F - 42.8 °F 82% 30.00 in 9.0 mi West 25.3 mph 35.7 mph N/A   Overcast
1:20 PM 46.4 °F 38.5 °F 44.6 °F 93% 30.01 in 4.0 mi West 21.9 mph 33.4 mph 0.00 in Rain Light Rain
1:24 PM 46.4 °F 37.7 °F 44.6 °F 93% 30.01 in 3.0 mi West 26.5 mph 32.2 mph 0.00 in Rain Light Rain
1:53 PM 46.0 °F 37.4 °F 43.0 °F 89% 30.02 in 7.0 mi West 25.3 mph 32.2 mph 0.00 in Rain Light Rain
2:00 PM 46.4 °F 38.3 °F 44.6 °F 93% 30.02 in 9.0 mi West 23.0 mph - 0.00 in   Overcast
2:53 PM 46.9 °F - 42.1 °F 83% 30.05 in 10.0 mi West 23.0 mph 31.1 mph 0.00 in   Overcast
3:53 PM 45.0 °F 36.2 °F 42.1 °F 90% 30.07 in 7.0 mi West 24.2 mph 32.2 mph N/A   Overcast
4:53 PM 46.0 °F 37.4 °F 41.0 °F 83% 30.08 in 9.0 mi West 25.3 mph - 0.00 in   Overcast
5:32 PM 44.6 °F 36.1 °F 39.2 °F 81% 30.09 in 10.0 mi West 21.9 mph 31.1 mph N/A   Overcast
5:53 PM 45.0 °F 37.1 °F 41.0 °F 86% 30.10 in 8.0 mi West 19.6 mph 29.9 mph N/A   Overcast
6:16 PM 42.8 °F 35.1 °F 39.2 °F 87% 30.11 in 6.0 mi NW 16.1 mph 21.9 mph N/A   Overcast
6:53 PM 41.0 °F 33.1 °F 39.9 °F 96% 30.12 in 6.0 mi NW 15.0 mph - N/A   Overcast
7:21 PM 39.2 °F 30.8 °F 37.4 °F 93% 30.13 in 9.0 mi NW 15.0 mph - N/A   Overcast
7:53 PM 39.9 °F 32.5 °F 37.9 °F 93% 30.14 in 6.0 mi WNW 12.7 mph - N/A   Overcast
8:19 PM 39.2 °F 32.0 °F 37.4 °F 93% 30.15 in 2.0 mi NW 11.5 mph - N/A   Overcast
8:53 PM 39.0 °F 31.4 °F 37.9 °F 96% 30.16 in 2.5 mi NW 12.7 mph - N/A   Overcast
9:53 PM 39.0 °F 31.8 °F 37.9 °F 96% 30.17 in 2.5 mi NW 11.5 mph - N/A   Overcast
10:01 PM 39.2 °F 32.0 °F 37.4 °F 93% 30.17 in 3.0 mi NW 11.5 mph - N/A   Overcast
10:53 PM 37.9 °F 32.7 °F 37.0 °F 97% 30.18 in 2.5 mi WNW 6.9 mph - 0.00 in   Light Drizzle
11:35 PM 37.4 °F 31.4 °F 37.4 °F 100% 30.18 in 1.8 mi NW 8.1 mph - 0.00 in   Light Drizzle
11:53 PM 37.9 °F 32.7 °F 37.0 °F 97% 30.19 in 3.0 mi NW 6.9 mph - 0.00 in   Overcast